| time (UTC) | temp F | wind direction | speed MPH | gust MPH | rain 1hr in | rain 24hr in | rain mn in | humidity % | barometer mb |
| 20260504130504 | 53 | 169 | 3.0 | 7.0 | 0.00 | 0.01 | 0.01 | 72 | 1008.8 |
| 20260504110459 | 38 | 23 | 0.0 | 2.0 | 0.00 | 0.01 | 0.01 | 92 | 1010.3 |
| 20260504100448 | 37 | 36 | 1.0 | 3.0 | 0.01 | 0.01 | 0.01 | 91 | 1010.4 |
| 20260504081947 | 35 | 292 | 1.0 | 2.0 | 0.00 | 0.00 | 0.00 | 89 | 1010.5 |
| 20260504081445 | 35 | 292 | 1.0 | 2.0 | 0.00 | 0.00 | 0.00 | 89 | 1010.4 |
| 20260504080945 | 35 | 292 | 1.0 | 2.0 | 0.00 | 0.00 | 0.00 | 89 | 1010.6 |
| 20260504080445 | 35 | 292 | 1.0 | 2.0 | 0.00 | 0.00 | 0.00 | 89 | 1010.7 |
| 20260504050436 | 33 | 292 | 0.0 | 2.0 | 0.00 | 0.00 | 0.00 | 84 | 1011.3 |
| 20260504045938 | 33 | 292 | 0.0 | 1.0 | 0.00 | 0.00 | 0.00 | 84 | 1011.4 |
| 20260504045437 | 33 | 292 | 0.0 | 2.0 | 0.00 | 0.00 | 0.00 | 84 | 1011.4 |
| 20260504044937 | 33 | 292 | 1.0 | 2.0 | 0.00 | 0.00 | 0.00 | 84 | 1011.4 |
| 20260504044437 | 33 | 292 | 1.0 | 3.0 | 0.00 | 0.00 | 0.00 | 84 | 1011.5 |
| 20260504043938 | 33 | 292 | 1.0 | 3.0 | 0.00 | 0.00 | 0.00 | 84 | 1011.6 |
| 20260504043436 | 33 | 292 | 0.0 | 2.0 | 0.00 | 0.00 | 0.00 | 84 | 1011.6 |
| 20260504042935 | 32 | 292 | 0.0 | 1.0 | 0.00 | 0.00 | 0.00 | 84 | 1011.7 |
| 20260504042436 | 32 | 292 | 0.0 | 1.0 | 0.00 | 0.00 | 0.00 | 84 | 1011.7 |
| 20260504041936 | 32 | 292 | 0.0 | 2.0 | 0.00 | 0.00 | 0.00 | 83 | 1011.7 |
| 20260504041435 | 32 | 292 | 0.0 | 2.0 | 0.00 | 0.00 | 0.00 | 83 | 1011.7 |
| 20260504040935 | 32 | 292 | 0.0 | 1.0 | 0.00 | 0.00 | 0.00 | 82 | 1011.8 |
| 20260504040435 | 32 | 292 | 0.0 | 1.0 | 0.00 | 0.00 | 0.00 | 82 | 1011.8 |
| 20260504035935 | 32 | 292 | 0.0 | 0.0 | 0.00 | 0.00 | 0.00 | 82 | 1011.8 |
| 20260504035434 | 32 | 292 | 0.0 | 1.0 | 0.00 | 0.00 | 0.00 | 82 | 1011.7 |
| 20260504034936 | 33 | 292 | 0.0 | 1.0 | 0.00 | 0.00 | 0.00 | 81 | 1011.7 |
| 20260504033434 | 33 | 292 | 0.0 | 1.0 | 0.00 | 0.00 | 0.00 | 80 | 1011.8 |
| 20260504032934 | 33 | 292 | 0.0 | 0.0 | 0.00 | 0.00 | 0.00 | 79 | 1011.7 |
| 20260504032434 | 33 | 292 | 0.0 | 0.0 | 0.00 | 0.00 | 0.00 | 79 | 1011.8 |
| 20260504031934 | 33 | 292 | 0.0 | 0.0 | 0.00 | 0.00 | 0.00 | 79 | 1011.7 |
| 20260504031435 | 34 | 292 | 0.0 | 0.0 | 0.00 | 0.00 | 0.00 | 78 | 1011.8 |
| 20260504030933 | 34 | 292 | 0.0 | 0.0 | 0.00 | 0.00 | 0.00 | 77 | 1011.8 |
| 20260504030432 | 34 | 292 | 0.0 | 0.0 | 0.00 | 0.00 | 0.00 | 77 | 1011.8 |
| 20260504025933 | 34 | 292 | 0.0 | 0.0 | 0.00 | 0.00 | 0.00 | 77 | 1011.8 |
| 20260504025432 | 35 | 292 | 0.0 | 0.0 | 0.00 | 0.00 | 0.00 | 77 | 1011.9 |
| 20260504024933 | 35 | 292 | 0.0 | 2.0 | 0.00 | 0.00 | 0.00 | 76 | 1011.9 |
| 20260504023933 | 35 | 292 | 0.0 | 1.0 | 0.00 | 0.00 | 0.00 | 76 | 1012.0 |
| 20260504022932 | 36 | 292 | 0.0 | 2.0 | 0.00 | 0.00 | 0.00 | 75 | 1011.8 |
| 20260504022432 | 36 | 292 | 0.0 | 2.0 | 0.00 | 0.00 | 0.00 | 75 | 1011.7 |
| 20260504021931 | 36 | 292 | 0.0 | 1.0 | 0.00 | 0.00 | 0.00 | 75 | 1011.8 |
| 20260504021430 | 36 | 292 | 0.0 | 1.0 | 0.00 | 0.00 | 0.00 | 74 | 1011.6 |
| 20260504020930 | 37 | 292 | 0.0 | 0.0 | 0.00 | 0.00 | 0.00 | 74 | 1011.8 |
| 20260504020430 | 37 | 292 | 0.0 | 0.0 | 0.00 | 0.00 | 0.00 | 73 | 1011.8 |
| 20260504015930 | 37 | 292 | 0.0 | 0.0 | 0.00 | 0.00 | 0.00 | 73 | 1011.8 |
| 20260504015430 | 37 | 292 | 0.0 | 0.0 | 0.00 | 0.00 | 0.00 | 73 | 1011.8 |
| 20260504014930 | 38 | 292 | 0.0 | 0.0 | 0.00 | 0.00 | 0.00 | 72 | 1011.8 |
| 20260504014431 | 38 | 292 | 0.0 | 1.0 | 0.00 | 0.00 | 0.00 | 72 | 1011.7 |
| 20260504013930 | 38 | 292 | 0.0 | 1.0 | 0.00 | 0.00 | 0.00 | 71 | 1011.8 |
| 20260504013429 | 38 | 292 | 0.0 | 1.0 | 0.00 | 0.00 | 0.00 | 71 | 1011.7 |
| 20260504012929 | 39 | 292 | 0.0 | 1.0 | 0.00 | 0.00 | 0.00 | 71 | 1011.7 |
| 20260504011429 | 40 | 292 | 0.0 | 1.0 | 0.00 | 0.00 | 0.00 | 69 | 1011.5 |
| 20260504010926 | 40 | 292 | 0.0 | 1.0 | 0.00 | 0.00 | 0.00 | 68 | 1011.4 |
| 20260504010426 | 41 | 292 | 0.0 | 0.0 | 0.00 | 0.00 | 0.00 | 67 | 1011.3 |
| 20260504005924 | 41 | 292 | 0.0 | 1.0 | 0.00 | 0.00 | 0.00 | 66 | 1011.3 |
| 20260504005424 | 42 | 292 | 0.0 | 1.0 | 0.00 | 0.00 | 0.00 | 65 | 1011.1 |
| 20260504004924 | 42 | 292 | 0.0 | 1.0 | 0.00 | 0.00 | 0.00 | 64 | 1011.0 |
| 20260504004424 | 43 | 292 | 0.0 | 1.0 | 0.00 | 0.00 | 0.00 | 64 | 1011.0 |
| 20260504003922 | 44 | 292 | 0.0 | 1.0 | 0.00 | 0.00 | 0.00 | 62 | 1011.0 |
| 20260504003422 | 44 | 292 | 0.0 | 2.0 | 0.00 | 0.00 | 0.00 | 61 | 1011.0 |
| 20260504002922 | 45 | 292 | 0.0 | 2.0 | 0.00 | 0.00 | 0.00 | 60 | 1011.0 |
| 20260504001922 | 46 | 292 | 0.0 | 1.0 | 0.00 | 0.00 | 0.00 | 58 | 1010.7 |
| 20260504001422 | 46 | 292 | 0.0 | 1.0 | 0.00 | 0.00 | 0.00 | 57 | 1010.9 |
| 20260504000923 | 47 | 292 | 0.0 | 1.0 | 0.00 | 0.00 | 0.00 | 55 | 1010.7 |
| 20260504000420 | 47 | 292 | 0.0 | 2.0 | 0.00 | 0.00 | 0.00 | 53 | 1010.7 |
| 20260503235920 | 48 | 292 | 1.0 | 2.0 | 0.00 | 0.00 | 0.00 | 50 | 1010.7 |
| 20260503235420 | 48 | 292 | 1.0 | 4.0 | 0.00 | 0.00 | 0.00 | 50 | 1010.7 |
| 20260503234919 | 48 | 292 | 1.0 | 4.0 | 0.00 | 0.00 | 0.00 | 48 | 1010.7 |
| 20260503234419 | 49 | 308 | 1.0 | 3.0 | 0.00 | 0.00 | 0.00 | 47 | 1010.7 |
| 20260503233917 | 49 | 308 | 1.0 | 3.0 | 0.00 | 0.00 | 0.00 | 46 | 1010.6 |
| 20260503233419 | 49 | 308 | 2.0 | 4.0 | 0.00 | 0.00 | 0.00 | 46 | 1010.6 |
| 20260503232918 | 49 | 308 | 3.0 | 8.0 | 0.00 | 0.00 | 0.00 | 46 | 1010.6 |
| 20260503232418 | 49 | 355 | 3.0 | 8.0 | 0.00 | 0.00 | 0.00 | 46 | 1010.5 |
| 20260503231916 | 49 | 341 | 2.0 | 8.0 | 0.00 | 0.00 | 0.00 | 45 | 1010.6 |
| 20260503231415 | 50 | 302 | 2.0 | 6.0 | 0.00 | 0.00 | 0.00 | 45 | 1010.5 |
| 20260503230915 | 50 | 15 | 2.0 | 6.0 | 0.00 | 0.00 | 0.00 | 46 | 1010.5 |
| 20260503230415 | 50 | 314 | 2.0 | 6.0 | 0.00 | 0.00 | 0.00 | 44 | 1010.5 |
| 20260503225416 | 50 | 272 | 3.0 | 8.0 | 0.00 | 0.00 | 0.00 | 44 | 1010.5 |
| 20260503224916 | 51 | 267 | 4.0 | 8.0 | 0.00 | 0.00 | 0.00 | 43 | 1010.5 |
| 20260503224416 | 51 | 275 | 3.0 | 9.0 | 0.00 | 0.00 | 0.00 | 43 | 1010.5 |
| 20260503223915 | 51 | 351 | 3.0 | 9.0 | 0.00 | 0.00 | 0.00 | 43 | 1010.6 |
| 20260503223415 | 50 | 263 | 3.0 | 7.0 | 0.00 | 0.00 | 0.00 | 45 | 1010.5 |
| 20260503222416 | 51 | 246 | 3.0 | 8.0 | 0.00 | 0.00 | 0.00 | 44 | 1010.4 |
| 20260503221916 | 51 | 241 | 3.0 | 7.0 | 0.00 | 0.00 | 0.00 | 44 | 1010.5 |
| 20260503221415 | 51 | 282 | 3.0 | 7.0 | 0.00 | 0.00 | 0.00 | 45 | 1010.5 |
| 20260503220916 | 51 | 287 | 2.0 | 6.0 | 0.00 | 0.00 | 0.00 | 45 | 1010.4 |
| 20260503220415 | 50 | 250 | 2.0 | 6.0 | 0.00 | 0.00 | 0.00 | 45 | 1010.4 |
| 20260503215915 | 50 | 5 | 2.0 | 4.0 | 0.00 | 0.00 | 0.00 | 45 | 1010.4 |
| 20260503215416 | 50 | 286 | 2.0 | 9.0 | 0.00 | 0.00 | 0.00 | 45 | 1010.4 |
| 20260503214913 | 50 | 252 | 4.0 | 13.0 | 0.00 | 0.00 | 0.00 | 45 | 1010.5 |
| 20260503214414 | 50 | 217 | 4.0 | 13.0 | 0.00 | 0.00 | 0.00 | 44 | 1010.5 |
| 20260503213914 | 50 | 219 | 3.0 | 8.0 | 0.00 | 0.00 | 0.00 | 45 | 1010.5 |
| 20260503213415 | 50 | 346 | 3.0 | 11.0 | 0.00 | 0.00 | 0.00 | 45 | 1010.4 |
| 20260503212911 | 50 | 340 | 4.0 | 11.0 | 0.00 | 0.00 | 0.00 | 46 | 1010.5 |
| 20260503212411 | 50 | 0 | 3.0 | 11.0 | 0.00 | 0.00 | 0.00 | 45 | 1010.5 |
| 20260503211911 | 50 | 267 | 3.0 | 11.0 | 0.00 | 0.00 | 0.00 | 44 | 1010.5 |
| 20260503211412 | 50 | 273 | 3.0 | 9.0 | 0.00 | 0.00 | 0.00 | 45 | 1010.4 |
| 20260503210911 | 50 | 284 | 3.0 | 9.0 | 0.00 | 0.00 | 0.00 | 45 | 1010.4 |
| 20260503210411 | 51 | 346 | 3.0 | 9.0 | 0.00 | 0.00 | 0.00 | 44 | 1010.3 |
| 20260503205909 | 52 | 347 | 3.0 | 8.0 | 0.00 | 0.00 | 0.00 | 44 | 1010.3 |
| 20260503205409 | 51 | 355 | 3.0 | 8.0 | 0.00 | 0.00 | 0.00 | 46 | 1010.3 |
| 20260503204909 | 50 | 265 | 3.0 | 8.0 | 0.00 | 0.00 | 0.00 | 47 | 1010.3 |
| 20260503204409 | 49 | 323 | 3.0 | 8.0 | 0.00 | 0.00 | 0.00 | 48 | 1010.3 |
| 20260503203409 | 49 | 266 | 5.0 | 13.0 | 0.00 | 0.00 | 0.00 | 47 | 1010.4 |
| 20260503202908 | 49 | 277 | 4.0 | 11.0 | 0.00 | 0.00 | 0.00 | 48 | 1010.4 |
| 20260503202410 | 50 | 229 | 3.0 | 11.0 | 0.00 | 0.01 | 0.00 | 47 | 1010.4 |
| 20260503201909 | 49 | 10 | 4.0 | 11.0 | 0.00 | 0.01 | 0.00 | 50 | 1010.4 |
| 20260503201409 | 48 | 309 | 5.0 | 12.0 | 0.00 | 0.01 | 0.00 | 49 | 1010.5 |
| 20260503200909 | 48 | 314 | 5.0 | 13.0 | 0.00 | 0.01 | 0.00 | 49 | 1010.6 |
| 20260503200409 | 48 | 226 | 4.0 | 14.0 | 0.00 | 0.01 | 0.00 | 49 | 1010.6 |
| 20260503195910 | 48 | 33 | 6.0 | 15.0 | 0.00 | 0.01 | 0.00 | 48 | 1010.7 |
| 20260503195407 | 48 | 355 | 6.0 | 15.0 | 0.00 | 0.01 | 0.00 | 49 | 1010.5 |
| 20260503194907 | 49 | 355 | 5.0 | 13.0 | 0.00 | 0.01 | 0.00 | 48 | 1010.6 |
| 20260503193907 | 49 | 252 | 3.0 | 11.0 | 0.00 | 0.01 | 0.00 | 49 | 1010.7 |
| 20260503193407 | 48 | 355 | 5.0 | 14.0 | 0.00 | 0.01 | 0.00 | 50 | 1010.7 |
| 20260503192907 | 48 | 247 | 6.0 | 14.0 | 0.00 | 0.01 | 0.00 | 48 | 1011.0 |
| 20260503192407 | 48 | 355 | 6.0 | 17.0 | 0.00 | 0.01 | 0.00 | 49 | 1011.0 |
| 20260503190905 | 49 | 265 | 5.0 | 13.0 | 0.00 | 0.01 | 0.00 | 46 | 1010.9 |
| 20260503185905 | 49 | 281 | 4.0 | 11.0 | 0.00 | 0.01 | 0.00 | 46 | 1010.7 |
| 20260503185404 | 49 | 267 | 4.0 | 10.0 | 0.00 | 0.01 | 0.00 | 48 | 1010.9 |
| 20260503184906 | 48 | 300 | 5.0 | 16.0 | 0.00 | 0.01 | 0.00 | 47 | 1010.9 |
| 20260503184405 | 48 | 290 | 7.0 | 17.0 | 0.00 | 0.01 | 0.00 | 46 | 1011.0 |
| 20260503183405 | 49 | 293 | 6.0 | 12.0 | 0.00 | 0.01 | 0.00 | 46 | 1011.0 |
| 20260503182904 | 49 | 321 | 6.0 | 15.0 | 0.00 | 0.01 | 0.00 | 44 | 1011.0 |
| 20260503182405 | 49 | 271 | 5.0 | 17.0 | 0.00 | 0.01 | 0.00 | 44 | 1011.0 |
| 20260503181905 | 49 | 306 | 5.0 | 17.0 | 0.00 | 0.01 | 0.00 | 44 | 1011.0 |
| 20260503181405 | 49 | 302 | 5.0 | 14.0 | 0.00 | 0.01 | 0.00 | 43 | 1011.0 |
| 20260503180905 | 49 | 17 | 6.0 | 14.0 | 0.00 | 0.01 | 0.00 | 43 | 1010.7 |
| 20260503175906 | 49 | 0 | 5.0 | 15.0 | 0.00 | 0.01 | 0.00 | 43 | 1011.0 |
| 20260503174906 | 48 | 5 | 4.0 | 12.0 | 0.00 | 0.01 | 0.00 | 46 | 1011.0 |
| 20260503174405 | 48 | 252 | 4.0 | 11.0 | 0.00 | 0.01 | 0.00 | 45 | 1011.0 |
| 20260503173904 | 47 | 355 | 4.0 | 11.0 | 0.00 | 0.01 | 0.00 | 46 | 1011.0 |
| 20260503173405 | 47 | 283 | 4.0 | 11.0 | 0.00 | 0.01 | 0.00 | 46 | 1011.0 |
| 20260503172906 | 47 | 281 | 4.0 | 12.0 | 0.00 | 0.01 | 0.00 | 48 | 1011.0 |
| 20260503172405 | 47 | 258 | 6.0 | 12.0 | 0.00 | 0.01 | 0.00 | 48 | 1011.0 |
| 20260503171904 | 48 | 300 | 5.0 | 12.0 | 0.00 | 0.01 | 0.00 | 48 | 1011.1 |
| 20260503171405 | 48 | 266 | 4.0 | 11.0 | 0.00 | 0.01 | 0.00 | 47 | 1011.0 |
| 20260503170402 | 49 | 0 | 4.0 | 12.0 | 0.00 | 0.01 | 0.00 | 48 | 1011.0 |
| 20260503150904 | 47 | 240 | 5.0 | 11.0 | 0.00 | 0.01 | 0.00 | 50 | 1011.8 |
| 20260503150402 | 46 | 338 | 4.0 | 11.0 | 0.00 | 0.01 | 0.00 | 51 | 1011.9 |